Steamboat Springs, CO

12:28 PM MDT on October 18, 2017 (GMT -0600)
Steamboat Springs-Adams

Weather History for KSBS - August, 2012

Change the Weather History Date:

Wednesday, August 22, 2012

  Actual Average Record
Temperature  
Mean Temperature 62 °F -  
Max Temperature 76 °F 79 °F 90 °F (1919)
Min Temperature 48 °F 40 °F 24 °F (1924)
Degree Days  
Heating Degree Days 3    
Growing Degree Days 12 (Base 50)    
Moisture  
Dew Point 40 °F    
Average Humidity 54    
Maximum Humidity 96    
Minimum Humidity 20    
Precipitation  
Precipitation 0.00 in - - ()
Sea Level Pressure  
Sea Level Pressure 30.21 in    
Wind  
Wind Speed 1 mph (North)    
Max Wind Speed 15 mph    
Max Gust Speed 24 mph    
Visibility 10 miles    
Events      
Averages and records for this station are not official NWS values.
T = Trace of Precipitation, MM = Missing Value Source: NWS Daily Summary

Daily Weather History Graph

Daily Weather History Graph

Search for Another Location

Airport or City:

Trip Planner

Search our weather history database for the weather conditions in past years. The results will help you decide how hot, cold, wet, or windy it might be!

Date:

Astronomy

Aug. 22, 2012 Rise Set
Actual Time 6:25 AM MDT 7:54 PM MDT
Civil Twilight 5:56 AM MDT 8:22 PM MDT
Nautical Twilight 5:22 AM MDT 8:57 PM MDT
Astronomical Twilight 4:45 AM MDT 9:33 PM MDT
Moon 12:09 PM MDT (8/22) 10:35 PM MDT (8/22)
Length of Visible Light 14h 25m
Length of Day
13h 28m
Waxing Crescent, 30% of the Moon is Illuminated
Aug 22
Waxing Crescent
Aug 24
First Quarter
Aug 31
Full
Sep 8
Last Quarter
Sep 15
New

Hourly Weather History & Observations

Time (MDT) Temp. Dew Point Humidity Pressure Visibility Wind Dir Wind Speed Gust Speed Precip Events Conditions
12:13 AM 56.7 °F 29.5 °F 35% 30.15 in 10.0 mi NE 4.6 mph - N/A   Scattered Clouds
12:33 AM 55.6 °F 32.2 °F 41% 30.16 in 10.0 mi ESE 3.5 mph - N/A   Scattered Clouds
12:53 AM 53.6 °F 31.8 °F 44% 30.16 in 10.0 mi Calm Calm - N/A   Clear
1:13 AM 56.1 °F 29.3 °F 36% 30.16 in 10.0 mi Calm Calm - N/A   Clear
1:33 AM 54.9 °F 30.7 °F 40% 30.16 in 10.0 mi Calm Calm - N/A   Clear
1:53 AM 54.7 °F 32.0 °F 42% 30.16 in 10.0 mi Calm Calm - N/A   Clear
2:13 AM 55.2 °F 31.3 °F 40% 30.16 in 10.0 mi Calm Calm - N/A   Clear
2:33 AM 53.2 °F 30.7 °F 42% 30.16 in 10.0 mi Calm Calm - N/A   Clear
2:53 AM 53.8 °F 30.2 °F 41% 30.17 in 10.0 mi Calm Calm - N/A   Clear
3:13 AM 53.1 °F 30.2 °F 42% 30.17 in 10.0 mi Calm Calm - N/A   Clear
3:33 AM 52.0 °F 32.2 °F 47% 30.17 in 10.0 mi Calm Calm - N/A   Clear
3:53 AM 50.2 °F 32.2 °F 50% 30.18 in 10.0 mi Calm Calm - N/A   Clear
4:13 AM 50.9 °F 32.0 °F 48% 30.18 in 10.0 mi Calm Calm - N/A   Clear
4:33 AM 49.6 °F 33.4 °F 54% 30.18 in 10.0 mi Calm Calm - N/A   Clear
4:53 AM 52.3 °F 32.0 °F 46% 30.19 in 10.0 mi Calm Calm - N/A   Clear
5:13 AM 48.4 °F 32.2 °F 54% 30.20 in 10.0 mi Calm Calm - N/A   Clear
5:33 AM 51.1 °F 33.8 °F 52% 30.20 in 10.0 mi Calm Calm - N/A   Clear
5:53 AM 49.5 °F 34.2 °F 56% 30.20 in 10.0 mi Calm Calm - N/A   Clear
6:13 AM 50.9 °F 32.9 °F 50% 30.21 in 10.0 mi Calm Calm - N/A   Scattered Clouds
6:33 AM 50.4 °F 33.8 °F 53% 30.21 in 10.0 mi Calm Calm - N/A   Mostly Cloudy
6:53 AM 48.9 °F 35.2 °F 59% 30.22 in 10.0 mi Calm Calm - N/A   Mostly Cloudy
7:13 AM 50.2 °F 34.7 °F 55% 30.23 in 10.0 mi Calm Calm - N/A   Mostly Cloudy
7:33 AM 52.2 °F 33.8 °F 50% 30.23 in 10.0 mi Calm Calm - N/A   Overcast
7:53 AM 52.9 °F 34.2 °F 49% 30.24 in 10.0 mi Calm Calm - N/A   Mostly Cloudy
8:13 AM 54.0 °F 34.7 °F 48% 30.24 in 10.0 mi Calm Calm - N/A   Overcast
8:33 AM 54.1 °F 35.8 °F 50% 30.24 in 10.0 mi Calm Calm - N/A   Mostly Cloudy
8:53 AM 54.9 °F 35.8 °F 49% 30.25 in 10.0 mi Calm Calm - N/A   Clear
9:13 AM 56.1 °F 35.6 °F 46% 30.25 in 10.0 mi Calm Calm - N/A   Scattered Clouds
9:33 AM 58.6 °F 36.1 °F 43% 30.25 in 10.0 mi Calm Calm - N/A   Scattered Clouds
9:53 AM 60.1 °F 37.0 °F 42% 30.24 in 10.0 mi Calm Calm - N/A   Scattered Clouds
10:13 AM 61.7 °F 37.4 °F 41% 30.24 in 10.0 mi East 6.9 mph - N/A   Mostly Cloudy
10:33 AM 64.2 °F 37.6 °F 37% 30.24 in 10.0 mi East 3.5 mph - N/A   Overcast
10:53 AM 65.3 °F 39.9 °F 39% 30.23 in 10.0 mi Calm Calm - N/A   Mostly Cloudy
11:13 AM 62.8 °F 39.4 °F 42% 30.23 in 10.0 mi WSW 3.5 mph - N/A   Scattered Clouds
11:33 AM 65.1 °F 39.2 °F 39% 30.24 in 10.0 mi Calm Calm - N/A   Scattered Clouds
11:53 AM 67.5 °F 39.0 °F 35% 30.24 in 10.0 mi Calm Calm - N/A   Scattered Clouds
12:13 PM 68.2 °F 38.8 °F 34% 30.23 in 10.0 mi Calm Calm - N/A   Scattered Clouds
12:33 PM 69.6 °F 39.4 °F 33% 30.23 in 10.0 mi Calm Calm - N/A   Scattered Clouds
12:53 PM 72.1 °F 36.7 °F 27% 30.22 in 10.0 mi NNE 3.5 mph - N/A   Mostly Cloudy
1:13 PM 73.9 °F 36.3 °F 25% 30.21 in 10.0 mi Calm Calm - N/A   Overcast
1:53 PM 74.8 °F 34.0 °F 23% 30.20 in 10.0 mi Calm Calm - N/A   Mostly Cloudy
2:13 PM 75.7 °F 32.5 °F 21% 30.19 in 10.0 mi NNE 3.5 mph - N/A   Overcast
2:33 PM 76.3 °F 32.9 °F 21% 30.18 in 10.0 mi North 4.6 mph - N/A   Mostly Cloudy
2:53 PM 76.5 °F 32.5 °F 20% 30.18 in 10.0 mi Calm Calm - N/A   Mostly Cloudy
3:13 PM 75.6 °F 32.2 °F 20% 30.18 in 10.0 mi NW 6.9 mph - N/A   Mostly Cloudy
3:33 PM 74.5 °F 32.2 °F 21% 30.18 in 10.0 mi WNW 4.6 mph - N/A   Mostly Cloudy
3:53 PM 74.3 °F 33.1 °F 22% 30.18 in 10.0 mi WNW 5.8 mph - N/A   Scattered Clouds
4:13 PM 73.8 °F 33.3 °F 23% 30.18 in 10.0 mi Calm Calm - N/A   Mostly Cloudy
4:33 PM 68.2 °F 42.4 °F 39% 30.20 in 10.0 mi SW 12.7 mph 23.0 mph N/A   Overcast
4:53 PM 66.4 °F 45.1 °F 46% 30.22 in 10.0 mi SSW 15.0 mph 24.2 mph N/A   Mostly Cloudy
5:13 PM 60.1 °F 50.5 °F 71% 30.24 in 10.0 mi SSW 8.1 mph - N/A   Overcast
5:33 PM 59.4 °F 52.5 °F 78% 30.26 in 7.0 mi North 3.5 mph - N/A   Overcast
5:53 PM 59.0 °F 52.5 °F 79% 30.26 in 5.0 mi Calm Calm - N/A   Overcast
6:13 PM 58.1 °F 52.9 °F 83% 30.26 in 7.0 mi Calm Calm - N/A   Overcast
6:33 PM 57.7 °F 54.1 °F 88% 30.26 in 7.0 mi Calm Calm - N/A   Overcast
6:53 PM 57.9 °F 54.5 °F 88% 30.25 in 5.0 mi Calm Calm - N/A   Overcast
7:13 PM 57.2 °F 54.5 °F 91% 30.24 in 7.0 mi Calm Calm - N/A   Overcast
7:33 PM 57.0 °F 54.7 °F 92% 30.23 in 7.0 mi Calm Calm - N/A   Overcast
7:53 PM 56.3 °F 54.7 °F 94% 30.23 in 10.0 mi Calm Calm - N/A   Overcast
8:13 PM 55.8 °F 54.3 °F 95% 30.24 in 10.0 mi Calm Calm - N/A   Overcast
8:33 PM 56.3 °F 54.7 °F 94% 30.24 in 10.0 mi Calm Calm - N/A   Overcast
8:53 PM 56.5 °F 54.7 °F 94% 30.24 in 10.0 mi Calm Calm - N/A   Overcast
9:13 PM 56.3 °F 54.5 °F 94% 30.25 in 7.0 mi Calm Calm - N/A   Overcast
9:33 PM 56.1 °F 54.3 °F 94% 30.26 in 7.0 mi Calm Calm - N/A   Overcast
10:13 PM 55.6 °F 54.0 °F 94% 30.24 in 10.0 mi Calm Calm - N/A   Overcast
10:33 PM 55.4 °F 53.8 °F 94% 30.24 in 10.0 mi Calm Calm - N/A   Overcast
10:53 PM 55.4 °F 54.0 °F 95% 30.24 in 10.0 mi Calm Calm - N/A   Overcast
11:13 PM 55.6 °F 53.1 °F 91% 30.23 in 10.0 mi Calm Calm - N/A   Overcast
11:33 PM 54.9 °F 53.2 °F 94% 30.24 in 10.0 mi Calm Calm - N/A   Overcast
11:53 PM 54.9 °F 53.6 °F 96% 30.24 in 10.0 mi Calm Calm - N/A   Overcast